Time,TemperatureF,DewpointF,PressureIn,WindDirection,WindDirectionDegrees,WindSpeedMPH,WindSpeedGustMPH,Humidity,HourlyPrecipIn,Conditions,Clouds,dailyrainin,SolarRadiationWatts/m^2,SoftwareType,DateUTC
2013-03-16 00:02:00,52.0,49.0,-100.00,SSW,196,1.0,6.0,89,0.00,,,0.00,0.000000,,2013-03-16 07:02:00,
2013-03-16 00:12:00,52.0,49.0,-100.00,SSW,196,1.0,6.0,89,0.00,,,0.00,0.000000,,2013-03-16 07:12:00,
2013-03-16 00:22:00,52.0,49.0,-100.00,SSW,196,1.0,6.0,89,0.00,,,0.00,0.000000,,2013-03-16 07:22:00,
2013-03-16 00:52:00,53.0,48.0,-100.00,North,9,1.0,3.0,82,0.00,,,0.00,0.000000,,2013-03-16 07:52:00,
2013-03-16 01:02:00,53.0,48.0,-100.00,North,9,1.0,3.0,82,0.00,,,0.00,0.000000,,2013-03-16 08:02:00,
2013-03-16 01:12:00,53.0,48.0,-100.00,North,9,1.0,3.0,82,0.00,,,0.00,0.000000,,2013-03-16 08:12:00,
2013-03-16 01:22:00,53.0,48.0,-100.00,North,9,1.0,3.0,82,0.00,,,0.00,0.000000,,2013-03-16 08:22:00,
2013-03-16 01:52:00,51.0,49.0,-100.00,WNW,300,3.0,7.0,93,0.00,,,0.00,0.000000,,2013-03-16 08:52:00,
2013-03-16 02:01:00,51.0,49.0,-100.00,WNW,300,3.0,7.0,93,0.00,,,0.00,0.000000,,2013-03-16 09:01:00,
2013-03-16 02:12:00,51.0,49.0,-100.00,WNW,300,3.0,7.0,93,0.00,,,0.00,0.000000,,2013-03-16 09:12:00,
2013-03-16 02:22:00,51.0,49.0,-100.00,WNW,300,3.0,7.0,93,0.00,,,0.00,0.000000,,2013-03-16 09:22:00,
2013-03-16 02:53:00,49.0,49.0,-100.00,NNE,24,2.0,5.0,100,0.00,,,0.00,0.000000,,2013-03-16 09:53:00,
2013-03-16 03:03:00,49.0,49.0,-100.00,NNE,24,2.0,5.0,100,0.00,,,0.00,0.000000,,2013-03-16 10:03:00,
2013-03-16 03:12:00,49.0,49.0,-100.00,NNE,24,2.0,5.0,100,0.00,,,0.00,0.000000,,2013-03-16 10:12:00,
2013-03-16 03:22:00,49.0,49.0,-100.00,NNE,24,2.0,5.0,100,0.00,,,0.00,0.000000,,2013-03-16 10:22:00,
2013-03-16 03:53:00,52.0,48.0,-100.00,NE,38,2.0,6.0,85,0.00,,,0.00,0.000000,,2013-03-16 10:53:00,
2013-03-16 04:03:00,52.0,48.0,-100.00,NE,38,2.0,6.0,85,0.00,,,0.00,0.000000,,2013-03-16 11:03:00,
2013-03-16 04:12:00,52.0,48.0,-100.00,NE,38,2.0,6.0,85,0.00,,,0.00,0.000000,,2013-03-16 11:12:00,
2013-03-16 04:22:00,52.0,48.0,-100.00,NE,38,2.0,6.0,85,0.00,,,0.00,0.000000,,2013-03-16 11:22:00,
2013-03-16 04:52:00,51.0,47.0,-100.00,NW,319,4.0,7.0,87,0.00,,,0.00,0.000000,,2013-03-16 11:52:00,
2013-03-16 05:02:00,51.0,47.0,-100.00,NW,319,4.0,7.0,87,0.00,,,0.00,0.000000,,2013-03-16 12:02:00,
2013-03-16 05:12:00,51.0,47.0,-100.00,NW,319,4.0,7.0,87,0.00,,,0.00,0.000000,,2013-03-16 12:12:00,
2013-03-16 05:22:00,51.0,47.0,-100.00,NW,319,4.0,7.0,87,0.00,,,0.00,0.000000,,2013-03-16 12:22:00,
2013-03-16 05:52:00,54.0,47.0,-100.00,NNE,30,6.0,11.0,77,0.00,,,0.00,0.000000,,2013-03-16 12:52:00,
2013-03-16 06:53:00,50.0,46.0,-100.00,North,1,2.0,10.0,85,-99.99,,,0.00,0.000000,,2013-03-16 13:53:00,
2013-03-16 07:02:00,50.0,46.0,-100.00,North,1,2.0,10.0,85,-99.99,,,0.00,0.000000,,2013-03-16 14:02:00,
2013-03-16 07:12:00,50.0,46.0,-100.00,North,1,2.0,10.0,85,-99.99,,,0.00,0.000000,,2013-03-16 14:12:00,
2013-03-16 07:22:00,50.0,46.0,-100.00,North,1,2.0,10.0,85,-99.99,,,0.00,0.000000,,2013-03-16 14:22:00,
2013-03-16 07:52:00,46.0,46.0,-100.00,SSW,211,1.0,5.0,100,-99.99,,,-99.99,1.000000,,2013-03-16 14:52:00,
2013-03-16 08:02:00,46.0,46.0,-100.00,SSW,211,1.0,5.0,100,-99.99,,,-99.99,1.000000,,2013-03-16 15:02:00,
2013-03-16 08:12:00,46.0,46.0,-100.00,SSW,211,1.0,5.0,100,-99.99,,,-99.99,1.000000,,2013-03-16 15:12:00,
2013-03-16 08:22:00,46.0,46.0,-100.00,SSW,211,1.0,5.0,100,-99.99,,,-99.99,1.000000,,2013-03-16 15:22:00,
2013-03-16 08:53:00,51.0,48.0,-100.00,West,259,3.0,5.0,89,0.00,,,0.00,81.000000,,2013-03-16 15:53:00,
2013-03-16 09:12:00,51.0,48.0,-100.00,West,259,3.0,5.0,89,0.00,,,0.00,81.000000,,2013-03-16 16:12:00,
2013-03-16 09:22:00,51.0,48.0,-100.00,West,259,3.0,5.0,89,0.00,,,0.00,81.000000,,2013-03-16 16:22:00,
2013-03-16 09:53:00,57.0,47.0,-100.00,NW,304,5.0,12.0,69,0.00,,,0.00,249.000000,,2013-03-16 16:53:00,
2013-03-16 10:02:00,57.0,47.0,-100.00,NW,304,5.0,12.0,69,0.00,,,0.00,249.000000,,2013-03-16 17:02:00,
2013-03-16 10:12:00,57.0,47.0,-100.00,NW,304,5.0,12.0,69,0.00,,,0.00,249.000000,,2013-03-16 17:12:00,
2013-03-16 10:22:00,57.0,47.0,-100.00,NW,304,5.0,12.0,69,0.00,,,0.00,249.000000,,2013-03-16 17:22:00,
2013-03-16 10:53:00,56.0,50.0,-100.00,WSW,249,8.0,11.0,79,0.00,,,-99.99,419.000000,,2013-03-16 17:53:00,
2013-03-16 11:02:00,56.0,50.0,-100.00,WSW,249,8.0,11.0,79,0.00,,,-99.99,419.000000,,2013-03-16 18:02:00,
2013-03-16 11:12:00,56.0,50.0,-100.00,WSW,249,8.0,11.0,79,0.00,,,-99.99,419.000000,,2013-03-16 18:12:00,
2013-03-16 11:21:00,56.0,50.0,-100.00,WSW,249,8.0,11.0,79,0.00,,,-99.99,419.000000,,2013-03-16 18:21:00,
2013-03-16 11:53:00,63.0,47.0,-100.00,North,10,3.0,9.0,56,0.00,,,-99.99,557.000000,,2013-03-16 18:53:00,
2013-03-16 12:02:00,63.0,47.0,-100.00,North,10,3.0,9.0,56,0.00,,,-99.99,557.000000,,2013-03-16 19:02:00,
2013-03-16 12:12:00,63.0,47.0,-100.00,North,10,3.0,9.0,56,0.00,,,-99.99,557.000000,,2013-03-16 19:12:00,
2013-03-16 12:22:00,63.0,47.0,-100.00,North,10,3.0,9.0,56,0.00,,,-99.99,557.000000,,2013-03-16 19:22:00,
2013-03-16 12:52:00,66.0,45.0,-100.00,West,274,6.0,12.0,46,0.00,,,0.00,625.000000,,2013-03-16 19:52:00,
2013-03-16 13:02:00,66.0,45.0,-100.00,West,274,6.0,12.0,46,0.00,,,0.00,625.000000,,2013-03-16 20:02:00,
2013-03-16 13:12:00,66.0,45.0,-100.00,West,274,6.0,12.0,46,0.00,,,0.00,625.000000,,2013-03-16 20:12:00,
2013-03-16 13:21:00,66.0,45.0,-100.00,West,274,6.0,12.0,46,0.00,,,0.00,625.000000,,2013-03-16 20:21:00,
2013-03-16 13:52:00,69.0,42.0,-100.00,WSW,256,8.0,12.0,38,0.00,,,0.00,662.000000,,2013-03-16 20:52:00,
2013-03-16 14:02:00,69.0,42.0,-100.00,WSW,256,8.0,12.0,38,0.00,,,0.00,662.000000,,2013-03-16 21:02:00,
2013-03-16 14:12:00,69.0,42.0,-100.00,WSW,256,8.0,12.0,38,0.00,,,0.00,662.000000,,2013-03-16 21:12:00,
2013-03-16 14:22:00,69.0,42.0,-100.00,WSW,256,8.0,12.0,38,0.00,,,0.00,662.000000,,2013-03-16 21:22:00,
2013-03-16 14:52:00,71.0,45.0,-100.00,SW,225,10.0,16.0,39,0.00,,,0.00,654.000000,,2013-03-16 21:52:00,
2013-03-16 15:03:00,71.0,45.0,-100.00,SW,225,10.0,16.0,39,0.00,,,0.00,654.000000,,2013-03-16 22:03:00,
2013-03-16 15:12:00,71.0,45.0,-100.00,SW,225,10.0,16.0,39,0.00,,,0.00,654.000000,,2013-03-16 22:12:00,
2013-03-16 15:22:00,71.0,45.0,-100.00,SW,225,10.0,16.0,39,0.00,,,0.00,654.000000,,2013-03-16 22:22:00,
2013-03-16 15:52:00,74.0,29.0,-100.00,WNW,289,13.0,23.0,19,0.00,,,0.00,552.000000,,2013-03-16 22:52:00,
2013-03-16 16:52:00,73.0,32.0,-100.00,WNW,294,17.0,26.0,22,0.00,,,0.00,537.000000,,2013-03-16 23:52:00,
2013-03-16 17:01:00,73.0,32.0,-100.00,WNW,294,17.0,26.0,22,0.00,,,0.00,537.000000,,2013-03-17 00:01:00,
2013-03-16 17:12:00,73.0,32.0,-100.00,WNW,294,17.0,26.0,22,0.00,,,0.00,537.000000,,2013-03-17 00:12:00,
2013-03-16 17:21:00,73.0,32.0,-100.00,WNW,294,17.0,26.0,22,0.00,,,0.00,537.000000,,2013-03-17 00:21:00,
2013-03-16 17:52:00,71.0,34.0,-100.00,WNW,288,16.0,28.0,26,0.00,,,0.00,395.000000,,2013-03-17 00:52:00,
2013-03-16 18:02:00,71.0,34.0,-100.00,WNW,288,16.0,28.0,26,0.00,,,0.00,395.000000,,2013-03-17 01:02:00,
2013-03-16 18:12:00,71.0,34.0,-100.00,WNW,288,16.0,28.0,26,0.00,,,0.00,395.000000,,2013-03-17 01:12:00,
2013-03-16 18:22:00,71.0,34.0,-100.00,WNW,288,16.0,28.0,26,0.00,,,0.00,395.000000,,2013-03-17 01:22:00,
2013-03-16 18:53:00,69.0,35.0,-100.00,WNW,282,14.0,25.0,28,0.00,,,0.00,202.000000,,2013-03-17 01:53:00,
2013-03-16 19:02:00,69.0,35.0,-100.00,WNW,282,14.0,25.0,28,0.00,,,0.00,202.000000,,2013-03-17 02:02:00,
2013-03-16 19:12:00,69.0,35.0,-100.00,WNW,282,14.0,25.0,28,0.00,,,0.00,202.000000,,2013-03-17 02:12:00,
2013-03-16 19:22:00,69.0,35.0,-100.00,WNW,282,14.0,25.0,28,0.00,,,0.00,202.000000,,2013-03-17 02:22:00,
2013-03-16 19:52:00,64.0,36.0,-100.00,WNW,298,12.0,22.0,35,0.00,,,0.00,56.000000,,2013-03-17 02:52:00,
2013-03-16 20:02:00,64.0,36.0,-100.00,WNW,298,12.0,22.0,35,0.00,,,0.00,56.000000,,2013-03-17 03:02:00,
2013-03-16 20:12:00,64.0,36.0,-100.00,WNW,298,12.0,22.0,35,0.00,,,0.00,56.000000,,2013-03-17 03:12:00,
2013-03-16 20:22:00,64.0,36.0,-100.00,WNW,298,12.0,22.0,35,0.00,,,0.00,56.000000,,2013-03-17 03:22:00,
2013-03-16 20:53:00,61.0,38.0,-100.00,NW,308,11.0,19.0,43,0.00,,,0.00,0.000000,,2013-03-17 03:53:00,
2013-03-16 21:02:00,61.0,38.0,-100.00,NW,308,11.0,19.0,43,0.00,,,0.00,0.000000,,2013-03-17 04:02:00,
2013-03-16 21:12:00,61.0,38.0,-100.00,NW,308,11.0,19.0,43,0.00,,,0.00,0.000000,,2013-03-17 04:12:00,
2013-03-16 21:22:00,61.0,38.0,-100.00,NW,308,11.0,19.0,43,0.00,,,0.00,0.000000,,2013-03-17 04:22:00,
2013-03-16 21:53:00,58.0,39.0,-100.00,WNW,298,12.0,23.0,49,0.00,,,0.00,0.000000,,2013-03-17 04:53:00,
2013-03-16 22:02:00,58.0,39.0,-100.00,WNW,298,12.0,23.0,49,0.00,,,0.00,0.000000,,2013-03-17 05:02:00,
2013-03-16 22:12:00,58.0,39.0,-100.00,WNW,298,12.0,23.0,49,0.00,,,0.00,0.000000,,2013-03-17 05:12:00,
2013-03-16 22:21:00,58.0,39.0,-100.00,WNW,298,12.0,23.0,49,0.00,,,0.00,0.000000,,2013-03-17 05:21:00,
2013-03-16 22:52:00,56.0,40.0,-100.00,NW,311,12.0,19.0,54,0.00,,,0.00,0.000000,,2013-03-17 05:52:00,
2013-03-16 23:02:00,56.0,40.0,-100.00,NW,311,12.0,19.0,54,0.00,,,0.00,0.000000,,2013-03-17 06:02:00,
2013-03-16 23:12:00,56.0,40.0,-100.00,NW,311,12.0,19.0,54,0.00,,,0.00,0.000000,,2013-03-17 06:12:00,
2013-03-16 23:21:00,56.0,40.0,-100.00,NW,311,12.0,19.0,54,0.00,,,0.00,0.000000,,2013-03-17 06:21:00,
2013-03-16 23:52:00,55.0,39.0,-100.00,NW,308,13.0,22.0,55,0.00,,,0.00,0.000000,,2013-03-17 06:52:00,